Location: Powder Track
(41.8531°N, 72.3584°W)
Time: 00:28:15
(UTC+00:00)

Vanguard 1 Rocket - Pass Details

Date: 10 August 2021
Orbit: 650 x 4226 km, 34.3° (Epoch: 19 September)

Event Time Altitude Azimuth Distance (km) Brightness Sun altitude
Rises 15:03:16 0° 263° (W) 8,407 12.1 54.3°
Reaches altitude 10° 15:09:31 10° 262° (W) 7,177 11.8 55.1°
Maximum altitude 15:31:44 66° 187° (S) 2,932 11.5 58.0°
Drops below altitude 10° 15:43:30 10° 109° (ESE) 4,103 11.3 59.4°
Sets 15:46:01 0° 106° (ESE) 4,761 11.4 59.6°
